COSMOS 1194

导读

COSMOS 1194是苏联(CIS,独联体前身)于1980年7月9日发射的军用卫星,属于冷战时期苏联庞大的"宇宙"(Cosmos)卫星系列。该系列以统一命名掩盖卫星真实任务,多数承担军事侦察、技术试验等涉密使命,运行于近地轨道。苏联时期通过该系列快速推进空间军事部署,绝大多数该系列卫星现已退役,成为太空漂浮的废弃航天器,部分失控卫星曾引发再入大气层的安全风险。COSMOS 1194是美苏太空争霸背景下,苏联空间军事能力的典型缩影。

基本信息
目录编号:
11877
目录名称:
COSMOS 1194
国际标识:
1980-058C
轨道中心:
EARTH
卫星名称:
COSMOS 1194
卫星全名:
--
卫星状态:
在轨 (已飞行16868 天)
发射日期:
1980-07-09 UTC
国别 :
俄罗斯(独联体) (CIS)
星等 :
--
该卫星已列入 空间交会检测服务 Space Conjunction Data Service (SCDS) ,当前飞行风险评估等级: 无高风险
轨道信息
数据来源 国际轨道数据
星历时间: 2026-09-14T06:27:17+0800
8小时前
查看轨道信息
半长轴: 7830.931km
偏心率: 0.0027161
轨道倾角: 74.015°
近地点辐角 206.765°
升交点赤经 82.404°
平近点角 153.200°
近地点: 1431.524km
远地点: 1474.064km
周期: 114.942分钟
每日圈数: 12.528027
详细信息
使用方式:
暂无
2D轨道图
3D轨道图
轨道高度分析图
轨道倾角分析图
轨道综合分析图
查看轨道综合分析图
交会数据列表
事件ID 空间交会对象 最接近时刻(TCA) 交会距离 交会风险概率(CRP) 交会风险指数(CRI) 操作
CDM_260915-062000-815701-187725
2026-09-15T
06:20:10+0000
1.425 km
极远距离
7.77362E-6 低风险 0.53
CDM_260916-034100-726601-187723
2026-09-16T
03:41:14+0000
1.940 km
极远距离
2.029901E-6 低风险 0.41
与全量物体交会距离演化趋势 订阅飞行安全评估服务
与全量物体交会风险概率演化趋势 订阅飞行安全评估服务